Location: Cedar Brake
(32.2526°N, 97.8459°W)
Time: 09:06:13
(UTC+00:00)

NOSS 3-4 (C) - Pass Details

Date: 22 April 2026
Orbit: 773 x 1438 km, 63.4° (Epoch: 26 December)

Event Time Altitude Azimuth Distance (km) Brightness Sun altitude
Rises 10:48:48 0° 325° (NW) 3,903 6.5 -13.8°
Reaches altitude 10° 10:51:20 10° 323° (NW) 3,033 5.9 -13.4°
Maximum altitude 10:58:36 63° 244° (WSW) 1,404 4.0 -12.0°
Drops below altitude 10° 11:06:55 10° 166° (SSE) 3,447 6.3 -10.3°
Sets 11:09:58 0° 163° (SSE) 4,466 6.9 -9.7°
